Change the Weather History Date:

Friday, November 9, 2012

  Actual Average Record
Temperature  
Mean Temperature 65 °F 48 °F  
Max Temperature 84 °F 61 °F 84 °F (2012)
Min Temperature 45 °F 36 °F 15 °F (1898)
Degree Days  
Heating Degree Days 0 17  
Month to date heating degree days 83 133  
Since 1 July heating degree days 364 402  
Cooling Degree Days 0 0  
Month to date cooling degree days 0 0  
Year to date cooling degree days 2256 1769  
Growing Degree Days 14 (Base 50)    
Moisture  
Dew Point 50 °F    
Average Humidity 56    
Maximum Humidity 83    
Minimum Humidity 28    
Precipitation  
Precipitation 0.00 in 0.03 in 1.37 in (1929)
Month to date precipitation 0.00 0.44  
Year to date precipitation 16.94 25.73  
Snow  
Snow 0.00 in 0.00 in - ()
Month to date snowfall 0.0 0.0  
Since 1 July snowfall 0.0 0.0  
Since 1 September snowfall 0.0 0.0  
Snow Depth 0.00 in    
Sea Level Pressure  
Sea Level Pressure 29.70 in    
Wind  
Wind Speed 13 mph (South)    
Max Wind Speed 28 mph    
Max Gust Speed 35 mph    
T = Trace of Precipitation, MM = Missing Value Source: NWS Daily Summary

Daily Weather History Graph

Daily Weather History Graph

Search for Another Location

Airport or City:

Trip Planner

Search our weather history database for the weather conditions in past years. The results will help you decide how hot, cold, wet, or windy it might be!

Date:

Astronomy

Nov. 09, 2012 Rise Set
Actual Time 7:07 AM CST 5:28 PM CST
Civil Twilight 6:40 AM CST 5:55 PM CST
Nautical Twilight 6:08 AM CST 6:26 PM CST
Astronomical Twilight 5:38 AM CST 6:57 PM CST
Moon 2:13 AM CST (11/9) 2:37 PM CST (11/9)
Length of Visible Light 11h 15m
Length of Day
10h 20m
Waning Crescent, 23% of the Moon is Illuminated
Nov 9
Waning Crescent
Nov 13
New
Nov 20
First Quarter
Nov 28
Full
Dec 6
Last Quarter

Hourly Weather History & Observations

Time (CST) Temp. Dew Point Humidity Pressure Visibility Wind Dir Wind Speed Gust Speed Precip Events Conditions
12:56 AM 54.0 °F 45.0 °F 72% 29.76 in - Calm Calm - N/A   Unknown
1:56 AM 52.0 °F 43.0 °F 71% 29.75 in - Calm Calm - N/A   Unknown
2:56 AM 48.9 °F 37.9 °F 66% 29.75 in - Calm Calm - N/A   Unknown
3:56 AM 53.1 °F 48.0 °F 83% 29.74 in - SE 4.6 mph - N/A   Unknown
4:56 AM 46.9 °F 39.0 °F 74% 29.75 in - SE 4.6 mph - N/A   Unknown
5:56 AM 55.9 °F 50.0 °F 80% 29.75 in - SSE 6.9 mph - N/A   Unknown
6:56 AM 55.9 °F 50.0 °F 80% 29.76 in - SSE 4.6 mph - N/A   Unknown
7:56 AM 55.9 °F 48.9 °F 77% 29.77 in - SSE 9.2 mph - N/A   Unknown
8:56 AM 64.0 °F 52.0 °F 65% 29.76 in - SSE 9.2 mph - N/A   Unknown
9:56 AM 69.1 °F 53.1 °F 57% 29.76 in - South 12.7 mph - N/A   Unknown
10:56 AM 73.0 °F 53.1 °F 49% 29.74 in - South 17.3 mph 23.0 mph N/A   Unknown
11:56 AM 77.0 °F 52.0 °F 42% 29.71 in - SSW 17.3 mph - N/A   Unknown
12:56 PM 79.0 °F 51.1 °F 38% 29.67 in - South 21.9 mph 28.8 mph N/A   Unknown
1:56 PM 82.0 °F 50.0 °F 33% 29.64 in - South 20.7 mph 31.1 mph N/A   Unknown
2:56 PM 82.9 °F 48.0 °F 29% 29.63 in - South 25.3 mph 35.7 mph N/A   Unknown
3:56 PM 82.0 °F 46.9 °F 29% 29.63 in - South 25.3 mph 31.1 mph N/A   Unknown
4:56 PM 80.1 °F 48.9 °F 34% 29.63 in - South 19.6 mph 28.8 mph N/A   Unknown
5:56 PM 75.9 °F 52.0 °F 43% 29.65 in - South 18.4 mph 28.8 mph N/A   Unknown
6:56 PM 73.0 °F 54.0 °F 51% 29.67 in - South 15.0 mph 25.3 mph N/A   Unknown
7:56 PM 71.1 °F 55.0 °F 57% 29.68 in - South 15.0 mph 23.0 mph N/A   Unknown
8:56 PM 71.1 °F 55.0 °F 57% 29.67 in - South 18.4 mph 25.3 mph N/A   Unknown
9:56 PM 70.0 °F 55.0 °F 59% 29.67 in - South 15.0 mph - N/A   Unknown
10:56 PM 71.1 °F 55.0 °F 57% 29.67 in - South 15.0 mph 25.3 mph N/A   Unknown
11:56 PM 68.0 °F 54.0 °F 61% 29.68 in - South 12.7 mph - N/A   Unknown